Tracking 18987 objects as of 17-Feb-2018
HD Live streaming from Space Station
objects crossing your sky now

NOAA 16 DEB

Track NOAA 16 DEB now!
10-day predictions


NORAD ID: 41221
Int'l Code: 2000-055EA
Perigee: 772.7 km
Apogee: 856.9 km
Inclination: 98.9 °
Period: 101.0 minutes
Semi major axis: 7185 km
RCS: Unknown
Launch date: September 21, 2000
Source: United States (US)
Launch site: AIR FORCE WESTERN TEST RANGE (AFWTR)

Note: This is SATELLITE DEBRIS
aabbcc
Your satellite tracking list
Your tracking list is empty




NASA's NSSDC Master Catalog

Two Line Element Set (TLE):
1 41221U 00055EA  18047.17064617  .00000913  00000-0  40068-3 0  9996
2 41221  98.8955 140.8149 0058632 302.8964  56.6582 14.25252735113552
Source of the keplerian elements: AFSPC